Ellsworth AFB, SD

10:28 AM MDT on June 23, 2017 (GMT -0600)
Ellsworth Air Force Base

Weather History for KRCA - April, 2013

Change the Weather History Date:

Thursday, April 18, 2013

  Actual Average Record
Temperature  
Mean Temperature 28 °F -  
Max Temperature 34 °F 55 °F 78 °F (2001)
Min Temperature 21 °F 33 °F 21 °F (2013)
Degree Days  
Heating Degree Days 38    
Moisture  
Dew Point 19 °F    
Average Humidity 81    
Maximum Humidity 93    
Minimum Humidity 54    
Precipitation  
Precipitation 0.00 in - - ()
Sea Level Pressure  
Sea Level Pressure 30.22 in    
Wind  
Wind Speed 19 mph (NNW)    
Max Wind Speed 30 mph    
Max Gust Speed 32 mph    
Visibility 8 miles    
Events Snow    
Averages and records for this station are not official NWS values.
T = Trace of Precipitation, MM = Missing Value Source: NWS Daily Summary

Daily Weather History Graph

Daily Weather History Graph

Search for Another Location

Airport or City:

Trip Planner

Search our weather history database for the weather conditions in past years. The results will help you decide how hot, cold, wet, or windy it might be!

Date:

Astronomy

Apr. 18, 2013 Rise Set
Actual Time 6:03 AM MDT 7:40 PM MDT
Civil Twilight 5:33 AM MDT 8:11 PM MDT
Nautical Twilight 4:56 AM MDT 8:48 PM MDT
Astronomical Twilight 4:16 AM MDT 9:28 PM MDT
Moon 12:15 PM MDT (4/18) 1:59 AM MDT (4/18)
Length of Visible Light 14h 38m
Length of Day
13h 37m
First Quarter, 52% of the Moon is Illuminated
Apr 18
First Quarter
Apr 25
Full
May 2
Last Quarter
May 9
New
May 17
First Quarter

Hourly Weather History & Observations

Time (MDT) Temp. Windchill Dew Point Humidity Pressure Visibility Wind Dir Wind Speed Gust Speed Precip Events Conditions
12:34 AM 24.8 °F 11.1 °F 23.0 °F 93% 30.26 in 7.0 mi NNW 18.4 mph - N/A   Overcast
12:54 AM 24.8 °F 10.0 °F 23.0 °F 93% 30.26 in 3.0 mi North 21.9 mph - N/A Snow Light Snow
12:55 AM 25.2 °F 10.4 °F 22.6 °F 90% 30.26 in 3.0 mi North 21.9 mph - 0.00 in Snow Light Snow
1:20 AM 24.8 °F 11.1 °F 23.0 °F 93% 30.25 in 6.0 mi North 18.4 mph - N/A Snow Light Snow
1:24 AM 24.8 °F 11.5 °F 23.0 °F 93% 30.25 in 7.0 mi North 17.3 mph - N/A Snow Light Snow
1:26 AM 24.8 °F 11.1 °F 23.0 °F 93% 30.25 in 8.0 mi North 18.4 mph - N/A Snow Light Snow
1:32 AM 24.8 °F 11.1 °F 21.2 °F 86% 30.25 in 9.0 mi North 18.4 mph - N/A   Overcast
1:34 AM 24.8 °F 11.5 °F 21.2 °F 86% 30.25 in 9.0 mi North 17.3 mph - N/A   Overcast
1:52 AM 23.0 °F 8.7 °F 21.2 °F 93% 30.23 in 2.5 mi North 18.4 mph - N/A Snow Light Snow
1:55 AM 23.5 °F 9.0 °F 21.0 °F 90% 30.23 in 2.5 mi North 19.6 mph - 0.00 in Snow Light Snow
1:59 AM 23.0 °F 8.7 °F 21.2 °F 93% 30.23 in 3.0 mi North 18.4 mph - N/A   Overcast
2:02 AM 23.0 °F 8.7 °F 19.4 °F 86% 30.23 in 8.0 mi North 18.4 mph - N/A   Overcast
2:23 AM 23.0 °F 9.2 °F 19.4 °F 86% 30.24 in 10.0 mi North 17.3 mph - N/A   Light Freezing Rain
2:32 AM 23.0 °F 9.2 °F 19.4 °F 86% 30.24 in 10.0 mi North 17.3 mph - N/A   Overcast
2:39 AM 23.0 °F 9.2 °F 19.4 °F 86% 30.25 in 9.0 mi North 17.3 mph - N/A   Overcast
2:51 AM 23.0 °F 9.6 °F 19.4 °F 86% 30.25 in 8.0 mi North 16.1 mph - N/A Snow Light Snow
2:55 AM 22.8 °F 9.4 °F 19.2 °F 86% 30.25 in 9.0 mi North 16.1 mph - 0.00 in Snow Light Snow
2:58 AM 23.0 °F 9.6 °F 19.4 °F 86% 30.25 in 10.0 mi North 16.1 mph - N/A Snow Light Snow
3:21 AM 23.0 °F 10.1 °F 19.4 °F 86% 30.26 in 10.0 mi North 15.0 mph - N/A   Overcast
3:22 AM 23.0 °F 10.1 °F 19.4 °F 86% 30.26 in 10.0 mi North 15.0 mph - N/A   Overcast
3:35 AM 23.0 °F 10.1 °F 19.4 °F 86% 30.25 in 10.0 mi North 15.0 mph - N/A   Overcast
3:41 AM 23.0 °F 9.6 °F 19.4 °F 86% 30.25 in 9.0 mi North 16.1 mph - N/A Snow Light Snow
3:48 AM 23.0 °F 10.1 °F 19.4 °F 86% 30.26 in 8.0 mi North 15.0 mph - N/A Snow Light Snow
3:55 AM 22.5 °F 9.9 °F 19.0 °F 87% 30.26 in 10.0 mi North 13.8 mph - 0.00 in Snow Light Snow
4:05 AM 23.0 °F 9.6 °F 19.4 °F 86% 30.25 in 5.0 mi North 16.1 mph - N/A Snow Light Snow
4:44 AM 23.0 °F 9.6 °F 19.4 °F 86% 30.25 in 7.0 mi North 16.1 mph - N/A   Overcast
4:47 AM 23.0 °F 9.6 °F 19.4 °F 86% 30.25 in 6.0 mi North 16.1 mph - N/A Snow Light Snow
4:55 AM 22.6 °F 9.6 °F 19.6 °F 88% 30.25 in 6.0 mi North 15.0 mph - 0.00 in Snow Light Snow
5:15 AM 23.0 °F 10.6 °F 19.4 °F 86% 30.24 in 7.0 mi North 13.8 mph - N/A Snow Light Snow
5:19 AM 23.0 °F 10.6 °F 19.4 °F 86% 30.24 in 7.0 mi North 13.8 mph - N/A Snow Light Snow
5:24 AM 23.0 °F 10.6 °F 19.4 °F 86% 30.24 in 6.0 mi North 13.8 mph - N/A Snow Light Snow
5:28 AM 23.0 °F 10.6 °F 19.4 °F 86% 30.24 in 6.0 mi North 13.8 mph - N/A Snow Light Snow
5:34 AM 23.0 °F 10.6 °F 19.4 °F 86% 30.24 in 7.0 mi North 13.8 mph - N/A Snow Light Snow
5:55 AM 22.6 °F 9.2 °F 20.5 °F 91% 30.23 in 10.0 mi North 16.1 mph 20.7 mph 0.00 in   Light Freezing Rain
6:31 AM 23.0 °F 9.2 °F 17.6 °F 80% 30.23 in 10.0 mi NNW 17.3 mph - N/A   Mostly Cloudy
6:47 AM 23.0 °F 7.2 °F 15.8 °F 74% 30.23 in 7.0 mi NNW 23.0 mph - N/A   Light Freezing Rain
6:55 AM 21.9 °F 6.2 °F 16.9 °F 81% 30.23 in 8.0 mi NNW 21.9 mph - 0.00 in   Light Freezing Rain
7:04 AM 21.2 °F 5.2 °F 17.6 °F 86% 30.23 in 8.0 mi NNW 21.9 mph - N/A   Overcast
7:11 AM 21.2 °F 5.2 °F 17.6 °F 86% 30.23 in 8.0 mi NNW 21.9 mph - N/A   Light Freezing Rain
7:33 AM 21.2 °F 4.9 °F 17.6 °F 86% 30.22 in 7.0 mi North 23.0 mph - N/A   Scattered Clouds
7:55 AM 21.6 °F 6.1 °F 17.8 °F 85% 30.21 in 10.0 mi NNW 20.7 mph - 0.00 in   Mostly Cloudy
8:17 AM 21.2 °F 5.6 °F 17.6 °F 86% 30.20 in 10.0 mi NNW 20.7 mph - N/A   Light Freezing Rain
8:55 AM 23.0 °F 7.2 °F 17.2 °F 79% 30.19 in 8.0 mi NNW 23.0 mph - 0.00 in   Light Freezing Rain
9:46 AM 23.0 °F 6.0 °F 19.4 °F 86% 30.18 in 2.5 mi NNW 27.6 mph - N/A Snow Blowing Snow
9:47 AM 23.0 °F 6.0 °F 17.6 °F 80% 30.18 in 3.0 mi NNW 27.6 mph - N/A Snow Blowing Snow
9:55 AM 23.9 °F 7.5 °F 18.3 °F 79% 30.18 in 4.0 mi NNW 26.5 mph - 0.00 in   Light Freezing Rain
10:55 AM 25.5 °F 9.4 °F 18.9 °F 76% 30.19 in 6.0 mi NNW 27.6 mph 32.2 mph 0.00 in   Light Freezing Rain
11:51 AM 26.6 °F 10.6 °F 17.6 °F 69% 30.19 in 8.0 mi NNW 28.8 mph - N/A   Partly Cloudy
11:55 AM 27.5 °F 12.0 °F 17.4 °F 66% 30.19 in 9.0 mi NNW 27.6 mph - 0.00 in   Partly Cloudy
12:55 PM 29.5 °F 15.3 °F 20.1 °F 68% 30.19 in 10.0 mi NNW 25.3 mph - N/A   Clear
1:55 PM 30.6 °F 16.7 °F 20.3 °F 66% 30.19 in 10.0 mi NNW 25.3 mph 31.1 mph N/A   Clear
2:55 PM 32.4 °F 18.1 °F 19.8 °F 60% 30.17 in 8.0 mi NNW 29.9 mph - N/A   Clear
3:55 PM 33.6 °F 20.8 °F 19.2 °F 56% 30.16 in 10.0 mi NNW 25.3 mph - N/A   Clear
4:55 PM 34.5 °F 22.3 °F 19.2 °F 54% 30.16 in 10.0 mi NNW 24.2 mph - N/A   Clear
5:55 PM 34.7 °F 24.0 °F 20.1 °F 55% 30.16 in 10.0 mi NNW 18.4 mph - N/A   Clear
6:55 PM 33.8 °F 24.8 °F 20.3 °F 58% 30.16 in 10.0 mi NNW 12.7 mph - N/A   Clear
7:55 PM 28.8 °F 18.4 °F 20.5 °F 71% 30.17 in 10.0 mi NW 12.7 mph - N/A   Scattered Clouds
8:55 PM 25.7 °F 15.1 °F 17.6 °F 71% 30.17 in 10.0 mi NW 11.5 mph - N/A   Clear
9:55 PM 24.4 °F 15.6 °F 15.3 °F 68% 30.15 in 10.0 mi WNW 8.1 mph - N/A   Clear
10:55 PM 23.5 °F 15.4 °F 14.2 °F 67% 30.12 in 10.0 mi West 6.9 mph - N/A   Partly Cloudy
11:55 PM 26.4 °F 18.9 °F 16.5 °F 66% 30.08 in 10.0 mi WSW 6.9 mph - N/A   Overcast